#timestamp,LO_Frequency,Hit,StdDev 
1552352415.1,286046999.2,N
1552352416.0,286046999.2,N
1552352435.8,286046998.8,N
1552352455.7,286046998.8,N
1552352475.5,286046998.8,N
1552352495.3,286046998.4,N
1552352515.2,286046998.4,N
1552352535.9,286046999.4,N
1552352555.7,286046998.3,Y
1552352575.6,286047000.5,P
1552352595.4,286047000.4,N
1552352615.2,286047000.9,N
1552352635.0,286046999.8,N
1552352636.0,286046999.8,N
1552352655.8,286047002.7,Y
1552352675.6,286047002.3,P
1552352695.5,286047002.6,N
1552352715.3,286047002.6,N
1552352735.1,286047002.1,N
1552352755.8,286047002.0,N
1552352775.7,286047001.8,N
1552352795.5,286047001.7,N
1552352815.3,286047001.4,N
1552352835.2,286047004.4,Y
1552352855.0,286047002.6,P
1552352855.9,286047002.6,P
1552352875.7,286047001.9,P
1552352895.6,286047004.3,Y
1552352915.4,286047000.1,P
1552352935.2,286046999.7,N
1552352955.1,286046999.7,N
1552352956.0,286046999.7,N
1552352975.8,286047002.4,N
1552352995.6,286047000.2,N
1552353015.5,286047002.3,N
1552353035.3,286047002.3,N
1552353055.1,286047002.6,N
1552353075.9,286047002.3,N
1552353095.7,286047000.2,N
1552353115.5,286047002.4,N
1552353135.4,286047002.4,N
1552353155.2,286047002.8,N
1552353175.0,286047002.7,N
1552353175.9,286047002.7,N
1552353195.8,286047002.7,N
1552353215.6,286047002.7,N
1552353235.4,286047002.3,N
1552353255.2,286047002.2,N
1552353275.1,286047001.9,N
1552353276.0,286047001.9,N
1552353295.8,286047001.7,N
1552353315.6,286047001.7,N
1552353335.5,286047001.4,N
1552353355.3,286047004.4,Y
1552353375.1,286047002.4,P
1552353395.9,286047002.8,P
1552353415.7,286047002.7,P
1552353435.5,286046999.9,N
1552353455.4,286047002.3,N
1552353475.2,286047002.1,N
1552353495.0,286047002.0,N
1552353495.9,286047002.0,N
1552353515.8,286047001.9,N
1552353535.6,286047001.9,N
1552353555.4,286047001.6,N
1552353575.3,286047001.8,N
1552353595.1,286047001.4,N
1552353596.0,286047001.4,N
1552353615.8,286047004.4,Y
1552353635.7,286047002.8,P
1552353655.5,286047002.7,P
1552353675.3,286047002.3,P
1552353695.2,286047002.3,Y
1552353715.9,286046998.6,P
1552353735.7,286046998.1,N
1552353755.6,286046998.1,N
1552353775.4,286047001.2,N
1552353795.2,286047001.2,N
1552353815.0,286047001.1,N
1552353816.0,286047001.1,N
1552353835.8,286047000.7,N
1552353855.6,286047000.8,N
1552353875.4,286047001.1,N
1552353895.3,286047001.1,N
1552353915.1,286047000.6,N
1552353935.8,286047000.8,N
1552353955.7,286047001.1,N
1552353975.5,286047000.9,N
1552353995.3,286047000.6,N
1552354015.2,286047000.5,N
1552354035.9,286047000.4,N
1552354055.7,286047000.3,N
1552354075.6,286047000.0,N
1552354095.4,286046999.9,N
1552354115.2,286047000.1,N
1552354135.1,286047000.6,N
1552354136.0,286047000.6,N
1552354155.8,286046999.8,N
1552354175.6,286047000.0,N
1552354195.4,286046999.9,N
1552354215.3,286047002.7,N
1552354235.1,286047000.2,N
1552354255.8,286046999.8,N
1552354275.7,286046999.8,N
1552354295.5,286047002.1,N
1552354315.3,286047002.6,Y
1552354335.2,286046999.7,P
1552354355.0,286046999.8,N
1552354355.9,286046999.8,N
1552354375.7,286047002.8,Y
1552354395.6,286047002.1,P
1552354415.4,286047002.6,N
1552354435.2,286047001.6,N
1552354455.1,286047002.6,N
1552354456.0,286047002.6,N
1552354475.8,286047002.2,N
1552354495.6,286047001.8,N
1552354515.5,286047002.1,N
1552354535.3,286047002.1,N
1552354555.1,286047002.1,N
1552354575.9,286047002.5,Y
1552354595.7,286047001.2,P
1552354615.5,286047000.5,N
1552354635.4,286047001.2,N
1552354655.2,286047001.1,N
1552354675.0,286047000.8,N
1552354675.9,286047000.8,N
1552354695.8,286047000.8,N
1552354715.6,286047000.6,N
1552354735.4,286047001.2,N
1552354755.3,286047001.1,N
1552354775.1,286046998.1,Y
1552354776.0,286046998.1,P
1552354795.8,286046998.6,N
1552354815.7,286046998.5,N
1552354835.5,286047001.2,N
1552354855.3,286047000.4,N
1552354875.2,286047000.9,N
1552354895.9,286047000.5,N
1552354915.7,286047000.0,N
1552354935.5,286047000.3,N
1552354955.4,286047000.3,N
1552354975.2,286047000.4,N
1552354995.0,286047000.1,N
1552354995.9,286047000.1,N
1552355015.8,286047000.2,N
1552355035.6,286047001.0,N
1552355055.4,286047001.2,N
1552355075.3,286047000.5,N
1552355095.1,286047000.6,N
1552355096.0,286047000.6,N
1552355115.8,286047001.2,N
1552355135.7,286047001.0,N
1552355155.5,286047001.1,N
1552355175.3,286047001.0,N
1552355195.2,286047000.3,N
1552355215.9,286047000.7,N
1552355235.7,286047001.0,N
1552355255.5,286047000.7,N
1552355275.4,286047000.8,N
1552355295.2,286047000.7,N
1552355315.0,286047001.1,N
1552355315.9,286047001.1,N
1552355335.8,286046998.1,Y
1552355355.6,286046998.2,P
1552355375.4,286046998.9,N
1552355395.3,286046998.5,N
1552355415.1,286046999.0,N
1552355435.8,286046998.9,N
1552355455.7,286046999.3,N
1552355475.5,286046998.8,N
1552355495.3,286046998.9,N
1552355515.2,286046998.3,N
1552355535.9,286046998.7,N
1552355555.7,286046999.2,N
1552355575.6,286046999.0,N
1552355595.4,286046999.1,N
1552355615.2,286046996.6,Y
1552355635.1,286046998.7,P
1552355636.0,286046998.7,P
1552355655.8,286047001.2,P
1552355675.6,286047000.8,N
1552355695.5,286046998.1,N
1552355715.3,286047000.8,N
1552355735.1,286047001.0,N
1552355755.9,286047000.4,N
1552355775.7,286047000.3,N
1552355795.5,286046999.8,N
1552355815.3,286047002.1,N
1552355835.2,286047002.7,N
1552355855.0,286047002.6,N
1552355855.9,286047002.6,N
1552355875.7,286047001.5,N
1552355895.6,286047001.9,N
1552355915.4,286047001.5,N
1552355935.2,286047001.5,N
1552355955.1,286047001.7,N
1552355956.0,286047001.7,N
1552355975.8,286047001.4,N
1552355995.6,286047004.0,Y
